Flag for Canada Weather past 2 weeks in Iqaluit, Nunavut, Canada

-4 °F

Partly cloudy.

Feels Like: -15 °F
Forecast: -11 / 0 °F
Wind: 5 mph from North

Location: Iqaluit

Current Time: Nov 25, 2015 at 5:37:52 AM

Latest Report: Nov 25, 2015 at 5:00 AM

Visibility: 15 mi

Pressure: 30.00 "Hg

Humidity: 77%

Dew point: -9 °F

Location of IqaluitLocation

Historic Weather in Iqaluit — Graph


Iqaluit temperature yesterday

Maximum temperature yesterday: -2 °F (at 12:00 PM)
Minimum temperature yesterday: -8 °F (at 10:00 PM)
Average temperature yesterday: -5 °F

Past Weeks' High & Low Weather Summary

High37 °F (Nov 20, 8:00 AM)100% (Nov 16, 7:00 PM)30.40 "Hg (Nov 16, 7:00 PM)
Low-8 °F (Nov 24, 10:00 PM)59% (Nov 24, 12:00 PM)29.31 "Hg (Nov 19, 3:00 PM)
Average16 °F81%29.95 "Hg
* Reported Nov 10 4:00 AM — Nov 25 4:00 AM, Iqaluit, Weather by CustomWeather, © 2015

Note: Actual official high and low records may vary slightly from our data, if they occured in-between our weather recording intervals... More about our weather records


Iqaluit weather history for previous 24 hours

Time TempWeatherWind HumidityBarometerVisibility
4:00 AM
Wed, Nov 25
-4 °FPassing clouds.3 mph77%30.00 "Hg15 mi
3:00 AM-2 °FPartly cloudy.6 mph77%30.00 "Hg15 mi
2:00 AM-8 °FPassing clouds.6 mph77%30.00 "Hg15 mi
1:00 AM-6 °FPassing clouds.6 mph70%29.99 "Hg15 mi
12:00 AM-6 °FPassing clouds.7 mph70%30.00 "Hg15 mi
11:00 PM
Tue, Nov 24
-6 °FPassing clouds.7 mph70%30.00 "Hg15 mi
10:00 PM-8 °FPassing clouds.9 mph77%30.00 "Hg15 mi
9:00 PM-6 °FPassing clouds.5 mph70%30.01 "Hg15 mi
8:00 PM-6 °FPassing clouds.10 mph70%30.01 "Hg15 mi
7:00 PM-6 °FPassing clouds.9 mph70%30.02 "Hg15 mi
6:00 PM-6 °FPassing clouds.9 mph70%30.03 "Hg15 mi
5:00 PM-4 °FPassing clouds.13 mph71%30.02 "Hg15 mi
4:00 PM-4 °FPassing clouds.14 mph65%30.03 "Hg15 mi
3:00 PM-4 °FPassing clouds.13 mph65%30.02 "Hg20 mi
2:00 PM-4 °FBroken clouds.16 mph59%30.01 "Hg30 mi
1:00 PM-4 °FPartly sunny.14 mph65%30.00 "Hg30 mi
12:00 PM-2 °FPartly sunny.20 mph59%30.00 "Hg30 mi
11:00 AM-4 °FBroken clouds.16 mph65%30.00 "Hg30 mi
10:00 AM-6 °FBroken clouds.17 mph70%30.01 "Hg30 mi
9:00 AM-6 °FBroken clouds.17 mph64%30.01 "Hg30 mi
8:00 AM-6 °FPartly cloudy.13 mph64%30.00 "Hg30 mi
7:00 AM-6 °FPassing clouds.17 mph70%29.97 "Hg15 mi
6:00 AM-4 °FPassing clouds.21 mph65%29.97 "Hg15 mi
5:00 AM-4 °FPartly cloudy.21 mph71%29.96 "Hg15 mi
Weather by CustomWeather, © 2015

See weather overviewHow to use our weather pages